Location: Alberta Star Party
(51.6612°N, 112.9089°W)
Time: 12:18:42
(UTC-06:00)

Amateur Radio Satellites - All Passes

Search period start: 28 April 2015 11:48
Search period end: 29 April 2015 11:48
Location: Alberta Star Party, 51.6612°N, 112.9089°W

Satellite Date Start Highest point End Downlink Frequencies (MHz)
Time Altitude Azimuth
YUBILEINY 28 Apr 11:49:09 11:58:00 85° 99° (E) 12:06:52 435.215
SO-50 28 Apr 11:51:14 11:55:32 36° 121° (ESE) 12:00:00 436.795
ISS 28 Apr 11:51:55 11:53:55 16° 142° (SE) 11:55:59 145.825
AIST 2 28 Apr 11:58:05 12:02:23 88° 229° (SW) 12:06:36 435.215
DOVE 4 28 Apr 12:01:01 12:05:08 25° 299° (WNW) 12:09:16 437.250
CUBEBUG 2 28 Apr 12:01:15 12:05:57 56° 289° (WNW) 12:10:37 437.445
DELFI C3 28 Apr 12:01:32 12:05:31 54° 289° (WNW) 12:09:27 145.870
DUCHIFAT 1 28 Apr 12:04:06 12:08:12 51° 260° (W) 12:12:22 145.980
TIGRISAT 28 Apr 12:06:33 12:10:36 30° 267° (W) 12:14:42 435.000
COMPASS 1 28 Apr 12:06:40 12:09:51 21° 299° (WNW) 12:12:55 437.405
POLYITAN 1 28 Apr 12:06:57 12:11:03 46° 261° (W) 12:15:12 437.675
BRITE-PL 28 Apr 12:08:24 12:10:49 13° 306° (NW) 12:13:07 437.365/2234.400
BEESAT 3 28 Apr 12:12:10 12:15:30 23° 242° (WSW) 12:18:43 437.485
UNISAT 6 28 Apr 12:12:31 12:16:24 26° 268° (W) 12:20:19 437.425
BEESAT 2 28 Apr 12:17:28 12:20:54 25° 242° (WSW) 12:24:13 435.950
HUMSAT D 28 Apr 12:19:22 12:23:45 86° 103° (ESE) 12:28:05 437.325/437.525
AO-7 28 Apr 12:19:55 12:21:54 11° 14° (NNE) 12:24:02 29.400- 29.500
UWE-3 28 Apr 12:21:05 12:25:36 45° 291° (WNW) 12:30:02 435.000/436.395/437.385
FUNcube-1 28 Apr 12:22:25 12:26:54 52° 291° (WNW) 12:31:22 145.935
UKube-1 28 Apr 12:22:44 12:27:06 84° 285° (WNW) 12:31:27 .
CINEMA 3 28 Apr 12:22:55 12:27:03 26° 298° (WNW) 12:31:08 145.822/145.860
QB50P1 28 Apr 12:24:03 12:27:53 33° 265° (W) 12:31:45 145.935-145.965
Oscar 19 28 Apr 12:25:56 12:29:31 20° 56° (NE) 12:33:15 437.125/150
Cosmos 2504 28 Apr 12:30:23 12:36:29 22° 77° (ENE) 12:42:47 435.465 / 435.565
SPROUT 28 Apr 12:33:49 12:35:37 13° 85° (E) 12:37:38 437.525
50 SAT 28 Apr 12:34:27 12:38:32 80° 103° (ESE) 12:42:34 437.505
ESTCUBE 1 28 Apr 12:35:40 12:39:58 43° 98° (E) 12:44:16 437.505/2401.250
Cosmos 2491 28 Apr 12:36:51 12:43:28 24° 283° (WNW) 12:49:48 435.465 / 435.565
SEEDS 28 Apr 12:38:52 12:39:50 11° 306° (NW) 12:40:37 437.485
Oscar 11 28 Apr 12:42:02 12:45:27 22° 299° (WNW) 12:48:46 145.826/435.025
AAUSAT CUBESAT 2 28 Apr 12:48:13 12:49:31 11° 305° (NW) 12:50:39 437.432
ZACube-1 28 Apr 12:49:24 12:53:29 31° 296° (WNW) 12:57:31 437.345
HO-68 28 Apr 12:49:58 12:55:31 24° 312° (NW) 13:00:54 435.675
QB50P2 28 Apr 12:52:23 12:55:26 19° 271° (W) 12:58:25 145.880/145.840
ANTELSAT 28 Apr 12:57:38 12:59:16 11° 278° (W) 13:00:42 437.575/2403.000
CUBEBUG 1 28 Apr 12:59:37 13:03:59 65° 102° (ESE) 13:08:21 437.445
RS-15 28 Apr 13:01:04 13:06:30 16° 96° (E) 13:12:43 29.354- 29.394
VELOX 1 28 Apr 13:03:21 13:07:47 66° 288° (WNW) 13:12:12 145.980
ITAMSAT 1 28 Apr 13:08:06 13:11:12 17° 53° (NE) 13:14:27 435.822/435.867
NANOSAT C BR1 28 Apr 13:09:22 13:11:36 14° 274° (W) 13:13:41 145.865
PCSat 28 Apr 13:10:13 13:13:31 16° 357° (N) 13:16:49 145.827
POPSAT HIP 1 28 Apr 13:14:28 13:16:20 12° 275° (W) 13:18:02 437.405
AIST 1 28 Apr 13:18:04 13:21:29 23° 272° (W) 13:24:49
DX 1 28 Apr 13:20:39 13:24:19 26° 298° (WNW) 13:27:54 434.975-435.025
BUGSAT 1 28 Apr 13:22:16 13:24:13 13° 274° (W) 13:26:01 437.445
AISAT 28 Apr 13:22:39 13:26:54 43° 293° (WNW) 13:31:08 437.250
TISAT 1 28 Apr 13:25:48 13:29:33 30° 95° (E) 13:33:20 437.305
ISS 28 Apr 13:26:36 13:29:48 55° 160° (SSE) 13:33:00 145.825
SO-50 28 Apr 13:31:22 13:36:01 49° 322° (NW) 13:40:48 436.795
AIST 2 28 Apr 13:38:01 13:40:22 14° 248° (WSW) 13:42:34 435.215
CUBEBUG 2 28 Apr 13:40:16 13:41:44 11° 308° (NW) 13:43:01 437.445
YUBILEINY 28 Apr 13:48:34 13:56:06 29° 304° (NW) 14:03:27 435.215
JAS-2 28 Apr 13:52:39 13:56:11 14° 43° (NE) 13:59:51 435.910
BEESAT 28 Apr 13:53:15 13:54:57 12° 84° (E) 13:56:53 436.000
Gurwin Techsat 1B 28 Apr 13:54:19 13:58:53 31° 61° (ENE) 14:03:31 435.225
SWISSCUBE 28 Apr 13:55:49 13:58:08 14° 85° (E) 14:00:39 437.505
HUMSAT D 28 Apr 13:56:21 13:58:57 15° 303° (WNW) 14:01:26 437.325/437.525
UKube-1 28 Apr 14:00:19 14:02:38 14° 305° (NW) 14:04:48 .
Oscar 19 28 Apr 14:03:08 14:08:19 84° 254° (WSW) 14:13:34 437.125/150
AO-7 28 Apr 14:05:39 14:11:45 24° 41° (NE) 14:18:03 29.400- 29.500
SPROUT 28 Apr 14:08:04 14:12:26 88° 285° (WNW) 14:16:47 437.525
50 SAT 28 Apr 14:10:29 14:12:49 15° 302° (WNW) 14:15:02 437.505
ESTCUBE 1 28 Apr 14:12:51 14:16:42 28° 297° (WNW) 14:20:29 437.505/2401.250
Cosmos 2504 28 Apr 14:19:55 14:28:49 81° 97° (E) 14:37:27 435.465 / 435.565
HORYU 2 28 Apr 14:24:16 14:26:14 13° 53° (NE) 14:28:21 437.375
CUBEBUG 1 28 Apr 14:36:49 14:39:58 19° 300° (WNW) 14:43:02 437.445
VELOX 1 28 Apr 14:41:58 14:43:35 12° 307° (NW) 14:45:03 145.980
ITAMSAT 1 28 Apr 14:44:50 14:50:01 79° 71° (ENE) 14:55:13 435.822/435.867
PCSat 28 Apr 14:54:45 14:58:55 22° 23° (NNE) 15:03:09 145.827
ITUPSAT 1 28 Apr 15:00:14 15:04:48 44° 98° (E) 15:09:22 437.325
TISAT 1 28 Apr 15:01:29 15:05:24 35° 294° (WNW) 15:09:17 437.305
ISS 28 Apr 15:02:49 15:06:06 88° 10° (N) 15:09:23 145.825
RS-15 28 Apr 15:06:00 15:16:33 61° 120° (ESE) 15:27:28 29.354- 29.394
SO-50 28 Apr 15:13:55 15:17:38 21° 345° (NNW) 15:21:23 436.795
STARS 28 Apr 15:21:35 15:22:36 11° 83° (E) 15:23:50 437.465
BEESAT 28 Apr 15:28:54 15:33:43 79° 106° (ESE) 15:38:29 436.000
SWISSCUBE 28 Apr 15:31:59 15:36:47 89° 96° (E) 15:41:33 437.505
JAS-2 28 Apr 15:32:29 15:39:45 46° 63° (ENE) 15:46:37 435.910
Gurwin Techsat 1B 28 Apr 15:33:30 15:38:41 51° 261° (W) 15:43:53 435.225
SPROUT 28 Apr 15:45:33 15:47:56 14° 304° (WNW) 15:50:10 437.525
Oscar 19 28 Apr 15:45:41 15:48:35 14° 276° (W) 15:51:17 437.125/150
AO-7 28 Apr 15:55:09 16:03:21 70° 64° (ENE) 16:11:37 29.400- 29.500
HORYU 2 28 Apr 15:57:41 16:02:10 72° 72° (ENE) 16:06:42 437.375
KKS-1 28 Apr 16:08:49 16:13:07 43° 98° (E) 16:17:25 437.445
GONETS M04 28 Apr 16:13:40 16:21:18 36° 83° (E) 16:29:09
Cosmos 2504 28 Apr 16:15:31 16:23:15 31° 301° (WNW) 16:30:37 435.465 / 435.565
ITAMSAT 1 28 Apr 16:26:38 16:30:12 18° 273° (W) 16:33:38 435.822/435.867
CUSAT 1 28 Apr 16:34:13 16:36:46 15° 77° (ENE) 16:39:52 437.405
Cubesat XI-IV 28 Apr 16:34:20 16:35:37 11° 46° (NE) 16:37:08 437.490
PCSat 28 Apr 16:38:02 16:43:26 61° 47° (NE) 16:48:49 145.827
ITUPSAT 1 28 Apr 16:38:24 16:42:35 30° 297° (WNW) 16:46:41 437.325
ISS 28 Apr 16:39:11 16:42:24 56° 200° (SSW) 16:45:36 145.825
Cosmos 2499 28 Apr 16:47:48 16:48:59 11° 68° (ENE) 16:50:47 435.465 / 435.565
STARS 28 Apr 16:55:26 16:59:55 78° 104° (ESE) 17:04:23 437.465
SO-50 28 Apr 16:56:16 16:59:48 19° 9° (N) 17:03:23 436.795
MOZHAYETS 4 28 Apr 17:00:19 17:02:41 14° 85° (E) 17:05:13
BEESAT 28 Apr 17:07:43 17:11:03 19° 303° (WNW) 17:14:16 436.000
SWISSCUBE 28 Apr 17:11:00 17:14:04 17° 305° (NW) 17:17:01 437.505
JAS-2 28 Apr 17:17:05 17:24:44 53° 262° (W) 17:31:55 435.910
RS-15 28 Apr 17:18:19 17:29:10 60° 327° (NNW) 17:40:25 29.354- 29.394
DANDE 28 Apr 17:33:32 17:37:08 34° 89° (E) 17:41:54 436.750
HORYU 2 28 Apr 17:36:27 17:39:23 16° 272° (W) 17:42:11 437.375
KKS-1 28 Apr 17:45:45 17:49:37 28° 297° (WNW) 17:53:25 437.445
AO-7 28 Apr 17:49:25 17:56:51 34° 266° (W) 18:04:12 29.400- 29.500
CUTE-I 28 Apr 17:59:06 18:04:00 40° 64° (ENE) 18:08:58 437.470
VERMONT LUNAR 28 Apr 18:01:15 18:02:45 12° 175° (S) 18:04:17 437.305
HO-68 28 Apr 18:06:58 18:09:14 12° 32° (NNE) 18:11:44 435.675
GONETS M04 28 Apr 18:08:58 18:17:43 66° 286° (WNW) 18:26:33
Cubesat XI-IV 28 Apr 18:09:33 18:14:37 48° 67° (ENE) 18:19:45 437.490
CUSAT 1 28 Apr 18:14:02 18:18:19 81° 283° (WNW) 18:24:11 437.405
ISS 28 Apr 18:16:10 18:18:17 16° 218° (SW) 18:20:20 145.825
PCSat 28 Apr 18:21:54 18:26:35 30° 247° (WSW) 18:31:11 145.827
Cosmos 2499 28 Apr 18:32:03 18:40:15 46° 89° (E) 18:48:12 435.465 / 435.565
STARS 28 Apr 18:32:55 18:35:53 17° 302° (WNW) 18:38:45 437.465
MOZHAYETS 4 28 Apr 18:36:00 18:40:39 85° 283° (WNW) 18:45:13
SO-50 28 Apr 18:37:02 18:41:38 37° 33° (NNE) 18:46:16 436.795
CUBESAT XI-V 28 Apr 18:46:02 18:48:30 15° 85° (E) 18:51:09 437.345
PHONESAT 2.4 28 Apr 19:03:03 19:04:56 14° 175° (S) 19:06:50 2401.200-2431.200
JAS-2 28 Apr 19:08:28 19:11:33 12° 284° (WNW) 19:14:05 435.910
DANDE 28 Apr 19:16:39 19:20:26 32° 299° (WNW) 19:25:22 436.750
PRISM 28 Apr 19:27:55 19:30:48 19° 91° (E) 19:33:46 437.425
RS-15 28 Apr 19:33:38 19:44:05 43° 360° (N) 19:54:58 29.354- 29.394
GOMX 1 28 Apr 19:38:21 19:41:08 17° 56° (ENE) 19:44:07 467.674
VERMONT LUNAR 28 Apr 19:38:24 19:39:21 11° 191° (SSW) 19:40:16 437.305
CUTE-I 28 Apr 19:39:12 19:44:09 38° 264° (W) 19:49:06 437.470
M-CUBED/EXP-1 PRIME 28 Apr 19:48:12 19:52:03 33° 101° (E) 19:55:36 437.505
HO-68 28 Apr 19:48:42 19:55:02 36° 56° (NE) 20:01:28 435.675
Cubesat XI-IV 28 Apr 19:50:13 19:54:57 31° 266° (W) 19:59:40 437.490
COMPASS 1 28 Apr 19:54:06 19:55:46 12° 55° (NE) 19:57:34 437.405
YUBILEINY 28 Apr 19:56:41 20:02:01 18° 43° (NE) 20:07:40 435.215
DOVE 4 28 Apr 19:58:09 20:01:08 18° 57° (ENE) 20:04:20 437.250
CUSAT 1 28 Apr 19:59:26 20:02:33 16° 314° (NW) 20:06:00 437.405
BRITE-PL 28 Apr 20:06:55 20:10:50 38° 66° (ENE) 20:15:02 437.365/2234.400
GONETS M04 28 Apr 20:10:29 20:16:46 20° 313° (NW) 20:22:48
STRAND 1 28 Apr 20:13:00 20:17:50 41° 97° (E) 20:22:41 437.568
MOZHAYETS 4 28 Apr 20:14:36 20:17:14 15° 304° (NW) 20:19:43
CINEMA 3 28 Apr 20:17:33 20:20:15 16° 56° (NE) 20:23:09 145.822/145.860
SO-50 28 Apr 20:17:34 20:22:28 58° 234° (SW) 20:27:18 436.795
CUBESAT XI-V 28 Apr 20:22:00 20:26:39 83° 287° (WNW) 20:31:16 437.345
SEEDS 28 Apr 20:22:55 20:26:23 25° 63° (ENE) 20:29:54 437.485
Cosmos 2499 28 Apr 20:24:50 20:33:26 53° 290° (WNW) 20:41:36 435.465 / 435.565
AUBIESAT-1 28 Apr 20:27:10 20:31:23 71° 108° (ESE) 20:35:13 437.475
Oscar 11 28 Apr 20:31:48 20:33:52 14° 56° (NE) 20:36:06 145.826/435.025
AAUSAT CUBESAT 2 28 Apr 20:31:54 20:35:08 22° 62° (ENE) 20:38:27 437.432
CANX-2 28 Apr 20:36:33 20:40:34 40° 68° (ENE) 20:44:38 2200.000
PHONESAT 2.4 28 Apr 20:40:50 20:42:18 12° 192° (SSW) 20:43:43 2401.200-2431.200
ZACube-1 28 Apr 20:41:45 20:42:45 11° 52° (NE) 20:43:57 437.345
CUTE 1.7 + AOD 2 28 Apr 20:45:04 20:49:09 44° 69° (ENE) 20:53:17 437.475
PRISM 28 Apr 21:02:36 21:06:37 53° 290° (WNW) 21:10:36 437.425
DX 1 28 Apr 21:11:30 21:13:26 13° 54° (NE) 21:15:32 434.975-435.025
GOMX 1 28 Apr 21:14:23 21:18:42 78° 258° (WSW) 21:23:19 467.674
DELFI C3 28 Apr 21:19:54 21:23:10 24° 64° (ENE) 21:26:31 145.870
M-CUBED/EXP-1 PRIME 28 Apr 21:23:03 21:26:55 32° 302° (WNW) 21:30:27 437.505
COMPASS 1 28 Apr 21:26:32 21:30:47 76° 74° (ENE) 21:35:03 437.405
CUBEBUG 2 28 Apr 21:28:33 21:32:36 34° 65° (ENE) 21:36:49 437.445
DOVE 4 28 Apr 21:33:58 21:38:21 74° 259° (WSW) 21:43:02 437.250
HO-68 28 Apr 21:35:18 21:42:28 65° 257° (WSW) 21:49:39 435.675
HUMSAT D 28 Apr 21:42:19 21:45:12 18° 59° (ENE) 21:48:11 437.325/437.525
O/OREOS (USA 219) 28 Apr 21:44:39 21:47:30 17° 102° (ESE) 21:50:29 437.305
BRITE-PL 28 Apr 21:45:53 21:49:34 27° 268° (W) 21:53:22 437.365/2234.400
UWE-3 28 Apr 21:47:05 21:51:17 41° 67° (ENE) 21:55:38 435.000/436.395/437.385
FUNcube-1 28 Apr 21:47:27 21:51:27 34° 66° (ENE) 21:55:35 145.935
UKube-1 28 Apr 21:47:47 21:51:13 24° 61° (ENE) 21:54:43 .
RS-15 28 Apr 21:47:56 21:59:06 59° 31° (NNE) 22:10:49 29.354- 29.394
CINEMA 3 28 Apr 21:52:19 21:56:47 89° 237° (WSW) 22:01:33 145.822/145.860
50 SAT 28 Apr 21:52:21 21:54:26 14° 58° (ENE) 21:56:39 437.505
STRAND 1 28 Apr 21:52:23 21:57:01 35° 297° (WNW) 22:01:35 437.568
Cosmos 2491 28 Apr 21:52:38 21:59:02 24° 77° (ENE) 22:05:44 435.465 / 435.565
YUBILEINY 28 Apr 21:52:42 22:01:21 58° 71° (ENE) 22:09:56 435.215
SEEDS 28 Apr 21:57:51 22:01:59 46° 262° (W) 22:06:08 437.485
CUBESAT XI-V 28 Apr 22:00:52 22:03:27 15° 304° (NW) 22:05:54 437.345
SO-50 28 Apr 22:01:03 22:02:07 10° 252° (WSW) 22:02:55 436.795
AUBIESAT-1 28 Apr 22:02:45 22:05:41 18° 309° (NW) 22:08:22 437.475
Oscar 11 28 Apr 22:05:03 22:09:25 82° 74° (ENE) 22:13:49 145.826/435.025
AAUSAT CUBESAT 2 28 Apr 22:06:22 22:10:30 51° 261° (W) 22:14:39 437.432
ESTCUBE 1 28 Apr 22:06:39 22:08:43 13° 55° (NE) 22:10:57 437.505/2401.250
CANX-2 28 Apr 22:12:55 22:16:38 27° 267° (W) 22:20:19 2200.000
ZACube-1 28 Apr 22:13:53 22:18:14 59° 71° (ENE) 22:22:43 437.345
Cosmos 2504 28 Apr 22:15:05 22:18:05 12° 37° (NE) 22:21:20 435.465 / 435.565
CUTE 1.7 + AOD 2 28 Apr 22:21:41 22:25:16 25° 268° (W) 22:28:49 437.475
Cosmos 2499 28 Apr 22:23:51 22:28:59 16° 316° (NW) 22:33:38 435.465 / 435.565
CUBEBUG 1 28 Apr 22:26:47 22:29:26 16° 58° (ENE) 22:32:11 437.445
VELOX 1 28 Apr 22:30:23 22:34:13 31° 64° (ENE) 22:38:07 145.980
DX 1 28 Apr 22:44:42 22:49:02 78° 73° (ENE) 22:53:24 434.975-435.025
AISAT 28 Apr 22:49:16 22:53:28 45° 68° (ENE) 22:57:43 437.250
DELFI C3 28 Apr 22:54:14 22:58:08 42° 262° (W) 23:02:03 145.870
GOMX 1 28 Apr 22:56:56 22:57:54 10° 279° (W) 22:58:36 467.674
ANTELSAT 28 Apr 23:04:36 23:07:38 17° 87° (E) 23:10:47 437.575/2403.000
COMPASS 1 28 Apr 23:04:41 23:07:04 14° 274° (W) 23:09:18 437.405
CUBEBUG 2 28 Apr 23:05:11 23:09:18 35° 266° (W) 23:13:32 437.445
HUMSAT D 28 Apr 23:16:15 23:20:31 69° 259° (WSW) 23:24:52 437.325/437.525
DOVE 4 28 Apr 23:16:33 23:17:13 10° 280° (W) 23:17:37 437.250
POPSAT HIP 1 28 Apr 23:18:07 23:18:40 10° 83° (E) 23:19:27 437.405
O/OREOS (USA 219) 28 Apr 23:21:51 23:26:26 74° 300° (WNW) 23:31:00 437.305
UKube-1 28 Apr 23:22:56 23:27:08 49° 260° (W) 23:31:21 .
FUNcube-1 28 Apr 23:23:45 23:27:48 34° 265° (W) 23:31:55 145.935
UWE-3 28 Apr 23:24:06 23:27:58 28° 268° (W) 23:31:55 435.000/436.395/437.385
50 SAT 28 Apr 23:24:39 23:28:41 84° 255° (WSW) 23:32:47 437.505
HO-68 28 Apr 23:27:53 23:31:49 15° 279° (W) 23:35:21 435.675
CINEMA 3 28 Apr 23:32:39 23:34:52 13° 277° (W) 23:36:56 145.822/145.860
SPROUT 28 Apr 23:32:48 23:35:56 20° 61° (ENE) 23:39:10 437.525
ESTCUBE 1 28 Apr 23:40:25 23:44:55 77° 73° (ENE) 23:49:26 437.505/2401.250
Oscar 11 28 Apr 23:43:53 23:46:15 14° 274° (W) 23:48:27 145.826/435.025
DUCHIFAT 1 28 Apr 23:44:06 23:47:03 18° 89° (E) 23:50:07 145.980
Cosmos 2491 28 Apr 23:46:04 23:54:50 89° 95° (E) 00:03:43 435.465 / 435.565
POLYITAN 1 28 Apr 23:47:25 23:50:38 21° 90° (E) 23:53:57 437.675
YUBILEINY 28 Apr 23:49:57 23:57:59 41° 274° (W) 00:05:49 435.215
ZACube-1 28 Apr 23:51:45 23:55:03 20° 272° (W) 23:58:18 437.345
TIGRISAT 28 Apr 23:52:09 23:56:39 42° 97° (E) 00:01:06 435.000
UNISAT 6 28 Apr 23:58:05 00:02:41 49° 99° (E) 00:07:12 437.425
RS-15 29 Apr 00:00:43 00:12:01 66° 238° (WSW) 00:23:44 29.354- 29.394
CUBEBUG 1 29 Apr 00:00:58 00:05:18 78° 255° (WSW) 00:09:39 437.445
QB50P1 29 Apr 00:03:31 00:07:13 28° 94° (E) 00:10:58 145.935-145.965
VELOX 1 29 Apr 00:06:37 00:10:44 37° 263° (W) 00:14:50 145.980
Cosmos 2504 29 Apr 00:06:50 00:14:28 43° 65° (ENE) 00:21:38 435.465 / 435.565
AIST 1 29 Apr 00:16:11 00:19:11 19° 86° (E) 00:22:16
TISAT 1 29 Apr 00:23:05 00:27:04 44° 68° (ENE) 00:31:07 437.305
DX 1 29 Apr 00:23:28 00:25:55 14° 273° (W) 00:28:12 434.975-435.025
AISAT 29 Apr 00:26:38 00:30:17 25° 268° (W) 00:33:55 437.250
QB50P2 29 Apr 00:30:40 00:34:53 51° 100° (E) 00:39:06 145.880/145.840
ITUPSAT 1 29 Apr 00:36:47 00:39:46 17° 55° (NE) 00:42:52 437.325
ANTELSAT 29 Apr 00:40:16 00:45:01 74° 287° (WNW) 00:49:40 437.575/2403.000
NANOSAT C BR1 29 Apr 00:46:10 00:50:29 70° 103° (ESE) 00:54:46 145.865
POPSAT HIP 1 29 Apr 00:51:03 00:55:23 78° 102° (ESE) 00:59:43 437.405
BUGSAT 1 29 Apr 00:56:11 01:00:20 63° 101° (ESE) 01:04:31 437.445
50 SAT 29 Apr 01:03:36 01:04:15 10° 276° (W) 01:04:42 437.505
O/OREOS (USA 219) 29 Apr 01:03:45 01:06:43 16° 322° (NW) 01:09:34 437.305
BEESAT 29 Apr 01:04:01 01:07:58 27° 61° (ENE) 01:11:59 436.000
SWISSCUBE 29 Apr 01:06:58 01:11:05 30° 63° (ENE) 01:15:15 437.505
SPROUT 29 Apr 01:07:28 01:11:41 58° 259° (W) 01:15:57 437.525
DUCHIFAT 1 29 Apr 01:19:03 01:23:17 59° 289° (WNW) 01:27:30 145.980
ESTCUBE 1 29 Apr 01:19:39 01:22:24 15° 273° (W) 01:25:01 437.505/2401.250
CUSAT 1 29 Apr 01:22:00 01:22:39 10° 37° (NE) 01:23:41 437.405
POLYITAN 1 29 Apr 01:22:40 01:26:54 53° 289° (WNW) 01:31:07 437.675
TIGRISAT 29 Apr 01:29:08 01:33:17 31° 296° (WNW) 01:37:20 435.000
UNISAT 6 29 Apr 01:35:15 01:39:15 27° 298° (WNW) 01:43:08 437.425
KKS-1 29 Apr 01:38:33 01:40:33 13° 54° (NE) 01:42:44 437.445
QB50P1 29 Apr 01:39:11 01:43:12 38° 293° (WNW) 01:47:11 145.935-145.965
CUBEBUG 1 29 Apr 01:41:42 01:42:32 10° 277° (W) 01:43:08 437.445
Cosmos 2491 29 Apr 01:45:46 01:53:06 28° 305° (NW) 02:00:17 435.465 / 435.565
AIST 1 29 Apr 01:52:18 01:56:30 52° 285° (WNW) 02:00:43
TISAT 1 29 Apr 01:59:41 02:03:05 23° 268° (W) 02:06:26 437.305
Cosmos 2504 29 Apr 02:00:23 02:08:09 52° 270° (W) 02:15:20 435.465 / 435.565
QB50P2 29 Apr 02:07:05 02:10:31 23° 298° (WNW) 02:13:52 145.880/145.840
Oscar 19 29 Apr 02:09:43 02:13:50 24° 90° (E) 02:18:01 437.125/150
BEESAT 3 29 Apr 02:10:37 02:13:14 17° 115° (ESE) 02:15:58 437.485
ITUPSAT 1 29 Apr 02:12:16 02:17:04 89° 237° (WSW) 02:21:54 437.325
RS-15 29 Apr 02:14:47 02:22:28 20° 261° (W) 02:29:39 29.354- 29.394
GONETS M04 29 Apr 02:15:52 02:22:54 26° 53° (NE) 02:30:09
BEESAT 2 29 Apr 02:16:55 02:19:30 17° 114° (ESE) 02:22:11 435.950
ANTELSAT 29 Apr 02:18:36 02:21:03 14° 306° (NW) 02:23:19 437.575/2403.000
STARS 29 Apr 02:22:41 02:25:53 20° 59° (ENE) 02:29:11 437.465
NANOSAT C BR1 29 Apr 02:22:57 02:25:53 18° 301° (WNW) 02:28:43 145.865
DANDE 29 Apr 02:23:05 02:27:46 18° 50° (NE) 02:33:14 436.750
POPSAT HIP 1 29 Apr 02:28:02 02:30:47 16° 302° (WNW) 02:33:25 437.405
BUGSAT 1 29 Apr 02:32:32 02:35:26 18° 300° (WNW) 02:38:18 437.445
BEESAT 29 Apr 02:40:56 02:45:36 51° 260° (W) 02:50:17 436.000
SWISSCUBE 29 Apr 02:44:14 02:48:49 44° 262° (W) 02:53:24 437.505
ITAMSAT 1 29 Apr 02:53:01 02:56:33 19° 88° (E) 03:00:14 435.822/435.867
DUCHIFAT 1 29 Apr 02:57:52 02:58:18 10° 307° (NW) 02:58:33 145.980
CUSAT 1 29 Apr 03:01:17 03:07:52 33° 61° (ENE) 03:15:16 437.405
KKS-1 29 Apr 03:12:04 03:16:30 76° 74° (ENE) 03:21:00 437.445
AIST 2 29 Apr 03:39:15 03:43:05 33° 121° (ESE) 03:46:58 435.215
Gurwin Techsat 1B 29 Apr 03:43:57 03:49:01 43° 97° (E) 03:54:04 435.225
BEESAT 3 29 Apr 03:46:39 03:50:47 78° 313° (NW) 03:54:57 437.485
Oscar 19 29 Apr 03:48:29 03:53:38 62° 291° (WNW) 03:58:46 437.125/150
AO-7 29 Apr 03:52:23 03:56:30 15° 80° (E) 04:01:07 29.400- 29.500
BEESAT 2 29 Apr 03:52:58 03:57:07 80° 313° (NW) 04:01:19 435.950
ITUPSAT 1 29 Apr 03:53:11 03:55:46 14° 275° (W) 03:58:09 437.325
Cosmos 2504 29 Apr 03:57:22 03:59:37 11° 293° (WNW) 04:01:20 435.465 / 435.565
STARS 29 Apr 03:57:36 04:01:58 62° 259° (WSW) 04:06:23 437.465
DANDE 29 Apr 04:05:14 04:12:30 60° 71° (ENE) 04:20:57 436.750
MOZHAYETS 4 29 Apr 04:06:59 04:10:48 26° 62° (ENE) 04:14:40
GONETS M04 29 Apr 04:12:22 04:21:19 86° 79° (E) 04:30:10
Cosmos 2499 29 Apr 04:17:08 04:23:07 23° 53° (NE) 04:28:59 435.465 / 435.565
JAS-2 29 Apr 04:22:35 04:26:59 20° 83° (E) 04:31:13 435.910
ITAMSAT 1 29 Apr 04:31:31 04:36:43 77° 288° (WNW) 04:41:54 435.822/435.867
CUSAT 1 29 Apr 04:43:41 04:51:17 77° 260° (W) 04:59:38 437.405
KKS-1 29 Apr 04:51:03 04:53:45 15° 273° (W) 04:56:20 437.445
M-CUBED/EXP-1 PRIME 29 Apr 05:07:23 05:10:56 21° 53° (NE) 05:14:30 437.505
AIST 2 29 Apr 05:17:26 05:21:35 46° 320° (NW) 05:25:45 435.215
HORYU 2 29 Apr 05:20:05 05:24:36 69° 103° (ESE) 05:29:05 437.375
Gurwin Techsat 1B 29 Apr 05:24:07 05:28:57 36° 297° (WNW) 05:33:44 435.225
BEESAT 3 29 Apr 05:26:11 05:29:25 21° 335° (NNW) 05:32:38 437.485
Oscar 19 29 Apr 05:29:34 05:32:06 13° 310° (NW) 05:34:27 437.125/150
BEESAT 2 29 Apr 05:32:33 05:35:51 22° 335° (NNW) 05:39:07 435.950
AO-7 29 Apr 05:43:05 05:51:20 62° 104° (ESE) 05:59:36 29.400- 29.500
MOZHAYETS 4 29 Apr 05:43:17 05:47:48 49° 261° (W) 05:52:20
AUBIESAT-1 29 Apr 05:45:06 05:49:26 35° 59° (ENE) 05:53:41 437.475
DANDE 29 Apr 05:48:45 05:55:42 41° 269° (W) 06:03:26 436.750
CUBESAT XI-V 29 Apr 05:54:17 05:58:06 27° 63° (ENE) 06:02:00 437.345
STRAND 1 29 Apr 05:57:10 06:00:43 20° 56° (NE) 06:04:24 437.568
JAS-2 29 Apr 06:06:40 06:13:10 82° 288° (WNW) 06:18:51 435.910
O/OREOS (USA 219) 29 Apr 06:08:43 06:11:42 17° 39° (NE) 06:14:45 437.305
Cosmos 2499 29 Apr 06:09:48 06:17:44 86° 77° (ENE) 06:25:03 435.465 / 435.565
GONETS M04 29 Apr 06:10:11 06:17:13 27° 281° (WNW) 06:23:58
ITAMSAT 1 29 Apr 06:12:21 06:15:30 16° 308° (NW) 06:18:30 435.822/435.867
PRISM 29 Apr 06:23:00 06:26:36 29° 65° (ENE) 06:30:14 437.425
Cubesat XI-IV 29 Apr 06:23:12 06:25:02 12° 82° (E) 06:27:09 437.490
CUSAT 1 29 Apr 06:27:38 06:33:14 21° 278° (W) 06:38:51 437.405
M-CUBED/EXP-1 PRIME 29 Apr 06:40:28 06:45:20 78° 251° (WSW) 06:50:07 437.505
HORYU 2 29 Apr 06:57:34 07:00:50 19° 302° (WNW) 07:03:58 437.375
AIST 2 29 Apr 06:58:13 07:01:10 17° 343° (NNW) 07:04:04 435.215
BEESAT 3 29 Apr 07:06:46 07:08:51 13° 359° (N) 07:10:54 437.485
BEESAT 2 29 Apr 07:13:15 07:15:21 13° 358° (N) 07:17:28 435.950
AUBIESAT-1 29 Apr 07:19:35 07:24:08 41° 257° (WSW) 07:28:35 437.475
PCSat 29 Apr 07:27:21 07:30:32 16° 107° (ESE) 07:33:55 145.827
CUBESAT XI-V 29 Apr 07:30:54 07:35:23 47° 262° (W) 07:39:51 437.345
STRAND 1 29 Apr 07:34:17 07:39:25 82° 257° (WSW) 07:44:33 437.568
AO-7 29 Apr 07:36:15 07:43:57 43° 306° (NW) 07:51:35 29.400- 29.500
O/OREOS (USA 219) 29 Apr 07:47:22 07:51:55 82° 63° (ENE) 07:56:24 437.305
CUTE-I 29 Apr 07:50:04 07:55:20 57° 101° (E) 08:00:36 437.470
JAS-2 29 Apr 07:52:42 07:57:18 20° 311° (NW) 08:01:25 435.910
Cosmos 2491 29 Apr 07:53:31 07:59:14 19° 45° (NE) 08:05:15 435.465 / 435.565
PRISM 29 Apr 07:58:11 08:02:01 35° 263° (W) 08:05:49 437.425
Cubesat XI-IV 29 Apr 08:00:55 08:06:16 70° 103° (ESE) 08:11:35 437.490
Cosmos 2499 29 Apr 08:04:05 08:09:53 23° 282° (WNW) 08:15:11 435.465 / 435.565
BRITE-PL 29 Apr 08:07:53 08:08:34 10° 81° (E) 08:09:34 437.365/2234.400
M-CUBED/EXP-1 PRIME 29 Apr 08:18:35 08:20:57 13° 270° (W) 08:23:04 437.505
AIST 2 29 Apr 08:38:51 08:41:17 15° 7° (N) 08:43:44 435.215
BEESAT 3 29 Apr 08:45:17 08:48:18 19° 22° (NNE) 08:51:20 437.485
BEESAT 2 29 Apr 08:51:55 08:54:56 19° 22° (NNE) 08:57:59 435.950
HO-68 29 Apr 08:57:54 09:02:47 20° 85° (E) 09:07:54 435.675
PCSat 29 Apr 09:07:48 09:13:14 82° 126° (SE) 09:18:43 145.827
GOMX 1 29 Apr 09:10:20 09:14:31 25° 90° (E) 09:18:56 467.674
YUBILEINY 29 Apr 09:10:34 09:13:43 13° 68° (ENE) 09:17:25 435.215
STRAND 1 29 Apr 09:16:53 09:19:32 14° 276° (W) 09:21:57 437.568
TIGRISAT 29 Apr 09:22:28 09:24:29 13° 53° (NE) 09:26:40 435.000
DOVE 4 29 Apr 09:27:25 09:31:33 24° 90° (E) 09:35:52 437.250
UNISAT 6 29 Apr 09:28:06 09:30:34 15° 55° (NE) 09:33:13 437.425
O/OREOS (USA 219) 29 Apr 09:28:11 09:30:46 15° 260° (W) 09:33:09 437.305
AO-7 29 Apr 09:30:01 09:34:45 16° 330° (NNW) 09:39:17 29.400- 29.500
CUTE-I 29 Apr 09:30:40 09:35:10 28° 300° (WNW) 09:39:35 437.470
SEEDS 29 Apr 09:37:17 09:40:30 21° 90° (E) 09:43:48 437.485
Cubesat XI-IV 29 Apr 09:41:44 09:45:58 24° 302° (WNW) 09:50:05 437.490
CINEMA 3 29 Apr 09:42:27 09:45:47 18° 86° (E) 09:49:17 145.822/145.860
BRITE-PL 29 Apr 09:43:03 09:48:08 61° 100° (E) 09:53:34 437.365/2234.400
AAUSAT CUBESAT 2 29 Apr 09:44:45 09:47:38 18° 89° (E) 09:50:36 437.432
Oscar 11 29 Apr 09:49:36 09:50:25 11° 83° (E) 09:51:30 145.826/435.025
Cosmos 2491 29 Apr 09:49:41 09:58:27 62° 72° (ENE) 10:07:13 435.465 / 435.565
CANX-2 29 Apr 09:52:11 09:56:10 37° 96° (E) 10:00:09 2200.000
QB50P2 29 Apr 09:55:57 09:57:40 12° 55° (NE) 09:59:33 145.880/145.840
CUTE 1.7 + AOD 2 29 Apr 10:00:39 10:04:43 40° 97° (E) 10:08:45 437.475
ANTELSAT 29 Apr 10:08:27 10:12:25 29° 63° (ENE) 10:16:30 437.575/2403.000
NANOSAT C BR1 29 Apr 10:10:14 10:12:44 16° 58° (ENE) 10:15:22 145.865
POPSAT HIP 1 29 Apr 10:15:03 10:17:48 17° 59° (ENE) 10:20:40 437.405
AIST 2 29 Apr 10:17:28 10:21:11 28° 30° (NNE) 10:24:52 435.215
BUGSAT 1 29 Apr 10:18:43 10:20:34 13° 57° (ENE) 10:22:35 437.445
AIST 1 29 Apr 10:19:07 10:19:14 10° 55° (NE) 10:19:32
BEESAT 3 29 Apr 10:22:58 10:27:05 63° 44° (NE) 10:31:08 437.485
DELFI C3 29 Apr 10:28:52 10:31:41 18° 89° (E) 10:34:36 145.870
BEESAT 2 29 Apr 10:29:41 10:33:50 62° 44° (NE) 10:37:54 435.950
SO-50 29 Apr 10:39:25 10:41:36 13° 110° (ESE) 10:44:00 436.795
COMPASS 1 29 Apr 10:40:18 10:44:32 69° 102° (ESE) 10:48:42 437.405
DUCHIFAT 1 29 Apr 10:41:35 10:45:08 28° 64° (ENE) 10:48:47 145.980
HO-68 29 Apr 10:44:29 10:51:45 83° 107° (ESE) 10:58:57 435.675
POLYITAN 1 29 Apr 10:45:32 10:49:16 31° 65° (ENE) 10:53:05 437.675
GOMX 1 29 Apr 10:47:55 10:53:00 61° 289° (WNW) 10:58:19 467.674
CUBEBUG 2 29 Apr 10:50:21 10:54:48 37° 95° (E) 10:59:14 437.445
PCSat 29 Apr 10:52:32 10:57:16 29° 328° (NNW) 11:02:01 145.827
TIGRISAT 29 Apr 10:55:52 11:00:26 69° 72° (ENE) 11:05:09 435.000
HUMSAT D 29 Apr 10:56:16 10:58:41 15° 86° (E) 11:01:14 437.325/437.525
YUBILEINY 29 Apr 11:00:11 11:08:37 54° 90° (E) 11:17:08 435.215
QB50P1 29 Apr 11:01:20 11:05:18 42° 68° (ENE) 11:09:21 145.935-145.965
UNISAT 6 29 Apr 11:02:02 11:06:39 80° 75° (ENE) 11:11:23 437.425
DOVE 4 29 Apr 11:04:37 11:09:40 61° 289° (WNW) 11:14:54 437.250
UKube-1 29 Apr 11:05:37 11:08:41 19° 90° (E) 11:11:52 .
FUNcube-1 29 Apr 11:06:21 11:10:34 34° 95° (E) 11:14:46 145.935
UWE-3 29 Apr 11:07:44 11:12:15 44° 97° (E) 11:16:44 435.000/436.395/437.385
SEEDS 29 Apr 11:12:29 11:16:37 49° 290° (WNW) 11:20:42 437.485
CINEMA 3 29 Apr 11:18:34 11:23:35 78° 287° (WNW) 11:28:38 145.822/145.860
AAUSAT CUBESAT 2 29 Apr 11:19:31 11:23:39 57° 289° (WNW) 11:27:44 437.432
BRITE-PL 29 Apr 11:22:09 11:26:23 26° 298° (WNW) 11:30:46 437.365/2234.400
Oscar 11 29 Apr 11:23:05 11:27:28 79° 103° (ESE) 11:31:48 145.826/435.025
CANX-2 29 Apr 11:28:17 11:32:03 29° 295° (WNW) 11:35:43 2200.000
QB50P2 29 Apr 11:28:39 11:32:54 77° 74° (ENE) 11:37:11 145.880/145.840
ESTCUBE 1 29 Apr 11:30:00 11:31:12 11° 83° (E) 11:32:38 437.505/2401.250
ZACube-1 29 Apr 11:33:17 11:37:54 61° 101° (E) 11:42:27 437.345
CUTE 1.7 + AOD 2 29 Apr 11:36:51 11:40:30 27° 296° (WNW) 11:44:04 437.475
